RSY700R UNOO-UACC

Flight info

Callsign RSY700R
Flight time 0h 42m
Altitude 33000
Route ALODA5D ALODA N990 DAKIN M75 OLGAS OLGAS4N
Aircraft A346/H-SDE2E3FGHIJ3J4J5M1RWXY/LB1D1

Departure

Time 2026-05-03 20:39
Airport Omsk Central Airport (UNOO)

Arrival

Time 2026-05-03 21:21
Airport Nursultan Nazarbayev International Airport (UACC)
Time Latitude Longitude Altitude Speed Heading
2026-05-03 20:33 54.96068 73.31619 314 ft 0 kts 166°
2026-05-03 20:35 54.96065 73.31620 314 ft 2 kts 166°
2026-05-03 20:35 54.96041 73.31667 316 ft 7 kts 101°
2026-05-03 20:35 54.96080 73.31751 315 ft 13 kts 46°
2026-05-03 20:36 54.96156 73.31890 314 ft 20 kts 46°
2026-05-03 20:36 54.96272 73.32099 313 ft 27 kts 43°
2026-05-03 20:36 54.96422 73.32240 311 ft 21 kts 12°
2026-05-03 20:36 54.96473 73.32325 313 ft 10 kts 68°
2026-05-03 20:37 54.96498 73.32481 312 ft 17 kts 77°
2026-05-03 20:37 54.96530 73.32723 308 ft 24 kts 77°
2026-05-03 20:37 54.96581 73.33007 308 ft 23 kts 45°
2026-05-03 20:37 54.96705 73.33012 310 ft 20 kts 345°
2026-05-03 20:38 54.96855 73.32951 307 ft 26 kts 347°
2026-05-03 20:38 54.96949 73.32761 310 ft 20 kts 253°
2026-05-03 20:38 54.96893 73.32377 312 ft 61 kts 257°
2026-05-03 20:38 54.96757 73.31339 313 ft 124 kts 257°
2026-05-03 20:39 54.96525 73.29616 329 ft 175 kts 257°
2026-05-03 20:39 54.96244 73.27478 1009 ft 179 kts 258°
2026-05-03 20:39 54.95981 73.25408 1927 ft 175 kts 261°
2026-05-03 20:39 54.95729 73.23306 2658 ft 190 kts 260°
2026-05-03 20:40 54.95398 73.20875 3003 ft 221 kts 259°
2026-05-03 20:40 54.95021 73.18181 3520 ft 237 kts 258°
2026-05-03 20:40 54.94625 73.15337 4211 ft 246 kts 258°
2026-05-03 20:40 54.94222 73.12411 4986 ft 252 kts 258°
2026-05-03 20:41 54.93796 73.09427 5780 ft 256 kts 255°
2026-05-03 20:41 54.93007 73.06681 6595 ft 262 kts 232°
2026-05-03 20:41 54.91563 73.04796 7362 ft 270 kts 205°
2026-05-03 20:41 54.89749 73.03798 8137 ft 276 kts 198°
2026-05-03 20:42 54.87853 73.02956 8874 ft 281 kts 198°
2026-05-03 20:42 54.85962 73.02113 9606 ft 284 kts 199°
2026-05-03 20:42 54.84057 73.01249 10305 ft 288 kts 199°
2026-05-03 20:42 54.82084 73.00338 10686 ft 303 kts 199°
2026-05-03 20:43 54.79977 72.99358 10988 ft 319 kts 199°
2026-05-03 20:43 54.77816 72.98353 11285 ft 334 kts 199°
2026-05-03 20:43 54.75499 72.97279 11658 ft 347 kts 199°
2026-05-03 20:43 54.73197 72.96215 12164 ft 353 kts 199°
2026-05-03 20:44 54.70813 72.95114 12737 ft 359 kts 199°
2026-05-03 20:44 54.68406 72.94003 13332 ft 363 kts 199°
2026-05-03 20:44 54.65987 72.92886 13944 ft 368 kts 199°
2026-05-03 20:44 54.63468 72.91719 14511 ft 372 kts 199°
2026-05-03 20:45 54.61087 72.90281 15077 ft 371 kts 209°
2026-05-03 20:45 54.58787 72.88174 15686 ft 371 kts 214°
2026-05-03 20:45 54.56663 72.85919 16244 ft 372 kts 217°
2026-05-03 20:45 54.54452 72.83414 16854 ft 374 kts 218°
2026-05-03 20:46 54.52338 72.80971 17430 ft 377 kts 218°
2026-05-03 20:46 54.50171 72.78470 18000 ft 380 kts 218°
2026-05-03 20:46 54.47971 72.75960 18564 ft 383 kts 218°
2026-05-03 20:46 54.45744 72.73449 19057 ft 386 kts 217°
2026-05-03 20:47 54.43553 72.71001 19561 ft 389 kts 217°
2026-05-03 20:47 54.41222 72.68413 20085 ft 391 kts 217°
2026-05-03 20:47 54.39014 72.65971 20557 ft 393 kts 217°
2026-05-03 20:47 54.36645 72.63356 21118 ft 395 kts 217°
2026-05-03 20:48 54.34435 72.60918 21586 ft 397 kts 218°
2026-05-03 20:48 54.32052 72.58291 22090 ft 399 kts 218°
2026-05-03 20:48 54.29714 72.55717 22552 ft 402 kts 218°
2026-05-03 20:48 54.27359 72.53126 23010 ft 404 kts 218°
2026-05-03 20:49 54.24996 72.50529 23469 ft 407 kts 218°
2026-05-03 20:49 54.22634 72.47941 23962 ft 406 kts 219°
2026-05-03 20:49 54.20306 72.45394 24389 ft 406 kts 219°
2026-05-03 20:49 54.17884 72.42867 24733 ft 412 kts 215°
2026-05-03 20:50 54.15257 72.40807 25075 ft 422 kts 206°
2026-05-03 20:50 54.12414 72.39369 25422 ft 429 kts 200°
2026-05-03 20:50 54.09497 72.38234 25763 ft 433 kts 198°
2026-05-03 20:50 54.06572 72.37245 26097 ft 436 kts 197°
2026-05-03 20:51 54.03650 72.36323 26419 ft 439 kts 197°
2026-05-03 20:51 54.00592 72.35374 26726 ft 441 kts 197°
2026-05-03 20:51 53.97561 72.34423 27048 ft 443 kts 197°
2026-05-03 20:51 53.94525 72.33458 27344 ft 445 kts 198°
2026-05-03 20:52 53.91488 72.32479 27665 ft 446 kts 198°
2026-05-03 20:52 53.88430 72.31485 27960 ft 449 kts 198°
2026-05-03 20:52 53.85385 72.30491 28236 ft 452 kts 198°
2026-05-03 20:53 53.79210 72.28476 28192 ft 452 kts 198°
2026-05-03 20:53 53.73070 72.26486 28193 ft 452 kts 198°
2026-05-03 20:54 53.66924 72.24496 28182 ft 452 kts 197°
2026-05-03 20:54 53.57665 72.21547 28186 ft 452 kts 197°
2026-05-03 20:55 53.51490 72.19649 28188 ft 452 kts 197°
2026-05-03 20:55 53.45299 72.17750 28183 ft 452 kts 196°
2026-05-03 20:56 53.39155 72.15862 28186 ft 451 kts 196°
2026-05-03 20:56 53.34029 72.14289 28196 ft 452 kts 196°
2026-05-03 20:57 53.27851 72.12398 28200 ft 452 kts 196°
2026-05-03 20:57 53.21656 72.10508 28199 ft 452 kts 196°
2026-05-03 20:58 53.15472 72.08626 28203 ft 452 kts 196°
2026-05-03 20:58 53.09292 72.06752 28203 ft 450 kts 195°
2026-05-03 20:59 53.03138 72.04891 28203 ft 449 kts 195°
2026-05-03 20:59 52.97055 72.03053 28205 ft 449 kts 195°
2026-05-03 21:00 52.91923 72.01513 28178 ft 449 kts 195°
2026-05-03 21:00 52.84767 71.99375 28212 ft 449 kts 195°
2026-05-03 21:01 52.78720 71.97576 28206 ft 447 kts 195°
2026-05-03 21:01 52.72674 71.95779 28209 ft 447 kts 195°
2026-05-03 21:02 52.66578 71.93971 28208 ft 447 kts 195°
2026-05-03 21:02 52.60510 71.92093 28212 ft 446 kts 196°
2026-05-03 21:03 52.57471 71.91075 28109 ft 445 kts 196°
2026-05-03 21:03 52.54444 71.90068 27576 ft 443 kts 196°
2026-05-03 21:03 52.51433 71.89074 27036 ft 441 kts 196°
2026-05-03 21:03 52.48427 71.88087 26537 ft 439 kts 196°
2026-05-03 21:04 52.45444 71.87112 26055 ft 436 kts 196°
2026-05-03 21:04 52.42472 71.86142 25582 ft 434 kts 196°
2026-05-03 21:04 52.39520 71.85181 25120 ft 431 kts 196°
2026-05-03 21:04 52.36580 71.84226 24673 ft 429 kts 195°
2026-05-03 21:05 52.33666 71.83280 24223 ft 426 kts 195°
2026-05-03 21:05 52.30770 71.82341 23723 ft 424 kts 195°
2026-05-03 21:05 52.27875 71.81403 23208 ft 422 kts 195°
2026-05-03 21:05 52.25002 71.80475 22726 ft 419 kts 195°
2026-05-03 21:06 52.22156 71.79557 22256 ft 416 kts 195°
2026-05-03 21:06 52.19330 71.78646 21784 ft 413 kts 195°
2026-05-03 21:06 52.16518 71.77741 21328 ft 410 kts 195°
2026-05-03 21:06 52.13788 71.76863 20877 ft 407 kts 195°
2026-05-03 21:07 52.10961 71.75953 20140 ft 411 kts 195°
2026-05-03 21:07 52.08160 71.75185 19192 ft 416 kts 190°
2026-05-03 21:07 52.05294 71.74787 18197 ft 411 kts 188°
2026-05-03 21:07 52.02478 71.74483 17147 ft 406 kts 187°
2026-05-03 21:08 51.99675 71.74183 16116 ft 401 kts 187°
2026-05-03 21:08 51.96975 71.73891 15301 ft 392 kts 187°
2026-05-03 21:08 51.94280 71.73597 14357 ft 387 kts 187°
2026-05-03 21:08 51.91605 71.73301 13328 ft 383 kts 187°
2026-05-03 21:09 51.88960 71.73008 12290 ft 380 kts 187°
2026-05-03 21:09 51.86332 71.72717 11278 ft 377 kts 187°
2026-05-03 21:09 51.83692 71.72425 10291 ft 374 kts 187°
2026-05-03 21:09 51.81169 71.72146 9441 ft 367 kts 187°
2026-05-03 21:10 51.78674 71.71871 8646 ft 357 kts 187°
2026-05-03 21:10 51.76221 71.71601 7862 ft 350 kts 186°
2026-05-03 21:10 51.73819 71.71336 7392 ft 344 kts 186°
2026-05-03 21:10 51.71425 71.71070 7233 ft 345 kts 186°
2026-05-03 21:11 51.69033 71.70806 7214 ft 344 kts 186°
2026-05-03 21:11 51.66640 71.70542 7215 ft 346 kts 186°
2026-05-03 21:11 51.64235 71.70277 7213 ft 345 kts 186°
2026-05-03 21:11 51.61867 71.70018 7214 ft 344 kts 186°
2026-05-03 21:12 51.59484 71.69757 7213 ft 343 kts 186°
2026-05-03 21:12 51.57099 71.69495 7214 ft 343 kts 186°
2026-05-03 21:12 51.54715 71.69235 7214 ft 344 kts 186°
2026-05-03 21:12 51.52324 71.68974 7214 ft 345 kts 186°
2026-05-03 21:13 51.49932 71.68713 7211 ft 345 kts 186°
2026-05-03 21:13 51.47536 71.68452 7213 ft 345 kts 186°
2026-05-03 21:13 51.45146 71.68191 7213 ft 345 kts 186°
2026-05-03 21:13 51.42750 71.67931 7211 ft 345 kts 186°
2026-05-03 21:14 51.40361 71.67672 7210 ft 342 kts 186°
2026-05-03 21:14 51.38050 71.67423 7086 ft 330 kts 186°
2026-05-03 21:14 51.35795 71.67180 6924 ft 321 kts 186°
2026-05-03 21:14 51.33600 71.66943 6586 ft 315 kts 186°
2026-05-03 21:15 51.31429 71.66707 5896 ft 310 kts 185°
2026-05-03 21:15 51.29292 71.66472 5136 ft 307 kts 185°
2026-05-03 21:15 51.27229 71.65834 4516 ft 296 kts 202°
2026-05-03 21:15 51.25394 71.64622 4237 ft 275 kts 197°
2026-05-03 21:16 51.23589 71.64277 4199 ft 250 kts 178°
2026-05-03 21:16 51.21907 71.64165 4200 ft 240 kts 186°
2026-05-03 21:16 51.20239 71.63947 4019 ft 240 kts 185°
2026-05-03 21:16 51.18572 71.63749 3934 ft 240 kts 185°
2026-05-03 21:17 51.16929 71.63569 3798 ft 231 kts 185°
2026-05-03 21:17 51.15914 71.63462 3812 ft 216 kts 185°
2026-05-03 21:17 51.14082 71.63249 3783 ft 180 kts 188°
2026-05-03 21:17 51.12931 71.62775 3776 ft 170 kts 204°
2026-05-03 21:18 51.11955 71.61815 3484 ft 162 kts 223°
2026-05-03 21:18 51.11172 71.60648 3112 ft 160 kts 226°
2026-05-03 21:18 51.10393 71.59404 2728 ft 160 kts 226°
2026-05-03 21:18 51.09625 71.58183 2504 ft 150 kts 226°
2026-05-03 21:19 51.08911 71.57053 2428 ft 145 kts 226°
2026-05-03 21:19 51.08197 71.55929 2074 ft 145 kts 225°
2026-05-03 21:19 51.07525 71.54867 1883 ft 129 kts 226°
2026-05-03 21:19 51.06936 71.53884 1704 ft 129 kts 226°
2026-05-03 21:20 51.06205 71.52750 1802 ft 160 kts 223°
2026-05-03 21:20 51.05457 71.51566 1633 ft 146 kts 223°
2026-05-03 21:20 51.04770 71.50533 1465 ft 133 kts 223°
2026-05-03 21:20 51.04125 71.49527 1358 ft 126 kts 224°
2026-05-03 21:21 51.03527 71.48606 1233 ft 120 kts 222°
2026-05-03 21:21 51.02959 71.47724 1167 ft 106 kts 224°
2026-05-03 21:21 51.02636 71.47221 1166 ft 15 kts 224°
2026-05-03 21:21 51.02608 71.47178 1167 ft 12 kts 224°
2026-05-03 21:22 51.02522 71.47017 1167 ft 23 kts 255°
2026-05-03 21:22 51.02613 71.46777 1164 ft 32 kts 314°
2026-05-03 21:22 51.02748 71.46543 1164 ft 22 kts 313°
2026-05-03 21:22 51.02787 71.46477 1164 ft 0 kts 313°